Weather History for Newark Heath, OH

Change the Weather History Date:

Wednesday, January 2, 2013

  Actual Average Record
Temperature  
Mean Temperature 13 °F -  
Max Temperature 23 °F 36 °F - (-1)
Min Temperature 3 °F 20 °F - (-1)
Degree Days  
Heating Degree Days 52    
Moisture  
Dew Point 9 °F    
Average Humidity 81    
Maximum Humidity 92    
Minimum Humidity 65    
Precipitation  
Precipitation 0.00 in - - ()
Sea Level Pressure  
Sea Level Pressure 30.23 in    
Wind  
Wind Speed 1 mph (South)    
Max Wind Speed 6 mph    
Max Gust Speed -    
Visibility 7 miles    
Events      
Averages and records for this station are not official NWS values.
T = Trace of Precipitation, MM = Missing Value Source: NWS Daily Summary

Daily Weather History Graph

Daily Weather History Graph

Search for Another Location

Airport:

Trip Planner

Search our weather history database for the weather conditions in past years. The results will help you decide how hot, cold, wet, or windy it might be!

Date:

Astronomy

Jan. 02, 2013 Rise Set
Actual Time 7:51 AM EST 5:16 PM EST
Civil Twilight 7:21 AM EST 5:46 PM EST
Nautical Twilight 6:47 AM EST 6:20 PM EST
Astronomical Twilight 6:14 AM EST 6:53 PM EST
Moon 10:47 PM EST (1/2) 10:33 AM EST (1/2)
Length of Visible Light 10h 25m
Length of Day
9h 24m
Waning Gibbous, 75% of the Moon is Illuminated
Jan 2
Waning Gibbous
Jan 4
Last Quarter
Jan 11
New
Jan 18
First Quarter
Jan 26
Full

Hourly Weather History & Observations

Time (EST) Temp. Windchill Dew Point Humidity Pressure Visibility Wind Dir Wind Speed Gust Speed Precip Events Conditions
12:54 AM 12.9 °F - 9.0 °F 84% 30.14 in 10.0 mi Calm Calm - N/A   Clear
1:54 AM 12.0 °F - 9.0 °F 88% 30.15 in 7.0 mi Calm Calm - N/A   Clear
2:54 AM 9.0 °F - 6.1 °F 88% 30.16 in 7.0 mi Calm Calm - N/A   Mostly Cloudy
4:54 AM 9.0 °F - 6.1 °F 88% 30.17 in 8.0 mi Calm Calm - N/A   Clear
5:54 AM 8.1 °F - 5.0 °F 87% 30.18 in 7.0 mi Calm Calm - N/A   Clear
6:54 AM 8.1 °F - 3.9 °F 83% 30.20 in 7.0 mi Calm Calm - N/A   Clear
7:54 AM 3.9 °F - 1.0 °F 88% 30.21 in 3.0 mi Calm Calm - N/A   Clear
8:54 AM 6.1 °F - 3.0 °F 87% 30.23 in 5.0 mi Calm Calm - N/A   Clear
9:54 AM 12.0 °F - 10.0 °F 92% 30.24 in 5.0 mi Calm Calm - N/A   Clear
10:54 AM 17.1 °F - 12.0 °F 81% 30.26 in 5.0 mi Calm Calm - N/A   Haze
11:54 AM 19.9 °F 14.9 °F 14.0 °F 78% 30.25 in 7.0 mi SSE 3.5 mph - N/A   Clear
12:54 PM 23.0 °F 18.4 °F 15.1 °F 72% 30.24 in 8.0 mi SSE 3.5 mph - N/A   Clear
1:54 PM 21.9 °F 14.5 °F 14.0 °F 72% 30.23 in 9.0 mi SSW 5.8 mph - N/A   Clear
2:54 PM 23.0 °F 15.8 °F 14.0 °F 68% 30.23 in 8.0 mi SSW 5.8 mph - N/A   Clear
3:54 PM 23.0 °F 17.0 °F 14.0 °F 68% 30.24 in 8.0 mi SSW 4.6 mph - N/A   Clear
4:54 PM 23.0 °F 17.0 °F 12.9 °F 65% 30.24 in 9.0 mi SSW 4.6 mph - N/A   Clear
5:54 PM 19.0 °F - 10.9 °F 71% 30.24 in 10.0 mi Calm Calm - N/A   Clear
6:54 PM 12.9 °F - 8.1 °F 81% 30.26 in 7.0 mi Calm Calm - N/A   Clear
7:54 PM 12.0 °F - 8.1 °F 84% 30.27 in 6.0 mi Calm Calm - N/A   Clear
8:54 PM 14.0 °F - 10.0 °F 84% 30.27 in 6.0 mi Calm Calm - N/A   Clear
9:54 PM 10.9 °F - 7.0 °F 84% 30.28 in 5.0 mi Calm Calm - N/A   Clear
10:54 PM 10.0 °F - 7.0 °F 87% 30.26 in 4.0 mi Calm Calm - N/A   Clear
11:54 PM 9.0 °F - 6.1 °F 88% 30.25 in 4.0 mi Calm Calm - N/A   Clear